Regional Weather Roundup
Issued by NWS

Home | Current Version | Previous Version | Text Only | Print | Product List | Glossary On
Versions: 1 2 3 4 5 6 7 8 9 10 11 12 13 14 15 16 17 18 19 20 21 22 23 24 25 26 27 28 29 30 31 32 33 34 35 36 37 38 39 40 41 42 43 44 45 46 47 48
000
ASUS44 KBMX 120210
RWRAL

ALABAMA REGIONAL WEATHER ROUNDUP
NATIONAL WEATHER SERVICE BIRMINGHAM AL
900 PM CDT FRI JUL 11 2014

NOTE: "FAIR" INDICATES FEW OR NO CLOUDS BELOW 12,000 FEET
WITH NO SIGNIFICANT WEATHER AND/OR OBSTRUCTIONS TO VISIBILITY.

THE REMARK "TC" DENOTES TEMPERATURE IN DEGREES CELSIUS.

ALZ001>011-014-016>018-020-120300-
NORTH ALABAMA

CITY           SKY/WX    TMP DP  RH WIND       PRES   REMARKS
MUSCLE SHOALS  CLEAR     75  69  81 CALM      30.15R
HUNTSVILLE     CLEAR     81  66  60 CALM      30.14R
DECATUR        CLEAR     74  68  81 CALM      30.14R
HALEYVILLE     FAIR      73  69  87 CALM      30.19R
GADSDEN        PTCLDY    81  68  65 CALM      30.14R
$$

ALZ012-013-022-023-030>036-040>044-120300-
WEST CENTRAL ALABAMA

CITY           SKY/WX    TMP DP  RH WIND       PRES   REMARKS
TUSCALOOSA     CLEAR     82  70  66 NW3       30.12R
$$

ALZ015-024>027-033>036-040>044-120300-
CENTRAL ALABAMA

CITY           SKY/WX    TMP DP  RH WIND       PRES   REMARKS
BIRMINGHAM     MOCLDY    81  66  60 N5        30.15R
MONTGOMERY     PTCLDY    80  72  76 CALM      30.11R
SHELBY CO ARPT PTCLDY    81  71  71 CALM      30.13R
MAXWELL AFB    CLEAR     80  77  91 CALM      30.11R
GREENVILLE     NOT AVBL
$$

ALZ019-021-028-029-037-038-045>048-120300-
EAST CENTRAL ALABAMA

CITY           SKY/WX    TMP DP  RH WIND       PRES   REMARKS
ANNISTON       CLEAR     78  74  87 CALM      30.14R
ALEXANDER CITY PTCLDY    76  70  83 CALM      30.16R
AUBURN         PTCLDY    75  66  73 CALM      30.18S
$$

ALZ051>064-120300-
SOUTHWEST ALABAMA

CITY           SKY/WX    TMP DP  RH WIND       PRES   REMARKS
MOBILE         CLOUDY    75  75 100 CALM      30.14R
BROOKLEY FIELD CLOUDY    77  74  90 S3        30.13R
EVERGREEN      MOCLDY    78  73  84 CALM      30.12R
$$

ALZ049-050-065>069-120300-
SOUTHEAST ALABAMA

CITY           SKY/WX    TMP DP  RH WIND       PRES   REMARKS
DOTHAN         PTCLDY    80  75  84 E3        30.16R
OZARK          CLEAR     80  74  84 SE2       30.12R
TROY           PTCLDY    80  72  76 CALM      30.13R
EUFAULA        FAIR      80  75  84 CALM      30.12R
$$


USA.gov is the U.S. government's official web portal to all federal, state and local government web resources and services.